Wind_Speed
9 4 5 3 5 7 7 9 8 5 5 3 4 5 18 27 25 23 21 21 21 14 15 17 21 24 23 22 19 17 14 12 9 11 14 16 18 17 13 13 12 13 9 8
6 6 3 7 5 4 10 10 8 9 10 8 8 8 25 21 16 20 18 17 20 14 11 16 18 19 21 23 19 18 15 12 10 11 9 7 12 10 12 11 10 9 9 7
6 4 5 4 7 6 8 9 9 8 9 8 5 10 14 10 21 22 20 19 18 15 13 14 19 20 22 21 17 15 14 13 13 12 11 11 14 17 18 18 14 10 8 7
1 5 3 6 10 9 6 7 7 9 8 6 1 4 9 8 20 19 16 15 14 14 14 16 17 19 19 20 19 20 20 19 17 17 19 19 18 17 18 16 18 12 14 17
5 9 10 9 6 5 4 9 8 8 11 8 18 6 4 6 10 12 13 13 10 11 14 11 13 12 17 17 17 14 15 14 13 15 15 17 13 11 13 15 17 14 12 10
3 7 6 4 8 12 10 13 12 7 4 4 5 4 3 2 4 7 11 9 10 11 11 12 9 9 10 11 13 12 11 9 12 10 9 10 14 15 16 20 17 10 10 4
9 10 5 9 11 11 9 6 4 6 5 5 7 9 5 12 14 12 10 9 7 5 5 3 2 6 6 4 5 7 9 12 11 16 16 16 16 16 15 12 16 15 17 13
4 4 4 6 2 4 5 4 4 3 4 9 12 4 5 13 16 14 11 8 6 5 3 2 2 5 7 10 3 11 14 17 17 17 16 16 14 17 19 20 19 19 17 16
5 1 9 10 6 5 1 2 5 2 4 4 4 5 6 12 13 15 10 9 7 6 5 4 4 9 10 12 9 10 17 19 20 19 19 20 21 20 19 21 21 19 19 16
6 3 7 11 8 10 2 3 5 4 3 4 3 6 5 8 9 9 6 7 7 5 5 4 9 7 8 13 15 18 18 17 18 20 21 21 19 16 22 20 24 21 21 25
6 5 7 7 6 6 6 5 4 2 3 3 1 4 7 11 8 6 4 6 6 5 0 3 4 7 14 20 17 20 21 20 19 19 18 16 20 21 19 15 10 13 12 14
5 2 2 6 8 7 4 2 2 3 4 2 3 3 5 4 5 5 4 6 5 6 2 3 7 15 17 16 16 16 15 17 18 19 21 15 18 18 18 16 17 14 13 13
5 4 4 8 8 11 7 7 6 1 5 6 6 2 2 3 4 1 2 2 4 6 3 5 14 14 13 13 14 14 18 19 18 20 19 19 17 18 17 11 13 11 12 14
6 4 2 2 6 8 12 9 13 6 4 1 3 9 3 3 4 4 5 7 5 3 7 6 10 10 10 11 15 15 16 17 20 22 18 22 16 18 15 13 11 12 13 13
5 1 6 8 9 12 12 13 13 9 3 2 6 3 4 5 8 8 10 6 8 8 8 6 7 11 16 17 14 17 18 18 22 18 18 17 16 18 17 17 17 17 16 13
3 3 6 6 9 11 13 14 11 13 11 11 9 3 6 3 11 9 8 11 10 7 6 8 11 13 14 14 17 18 18 17 19 18 16 18 20 20 18 18 17 18 17 15
2 3 4 4 9 9 10 5 12 15 9 5 5 2 2 9 11 10 10 9 6 7 8 6 9 11 14 17 17 18 18 18 18 16 17 17 18 17 17 18 17 16 14 11
3 3 2 3 7 5 3 11 17 15 10 9 7 11 11 12 11 9 7 6 10 7 6 10 15 10 12 15 19 17 18 18 17 16 17 18 17 19 19 19 18 14 13 12
6 3 2 3 3 4 5 6 5 4 3 4 6 9 9 8 11 6 10 10 6 9 14 17 12 11 15 17 17 16 17 18 16 16 16 19 20 19 19 19 18 15 12 13
7 7 5 2 2 3 2 7 8 5 2 6 6 8 7 8 5 5 6 11 11 14 15 14 15 18 19 19 18 19 19 21 20 16 16 17 17 17 18 17 17 16 14 11
0 3 3 2 2 2 6 12 6 6 3 7 9 7 9 6 5 5 9 8 14 16 21 19 20 20 19 18 19 21 21 18 16 16 16 17 18 18 17 16 19 19 18 22
3 2 2 3 4 1 7 6 5 3 6 8 8 6 8 12 8 7 6 11 12 13 17 17 17 18 18 19 19 18 19 16 15 16 17 18 18 18 18 18 18 19 20 21
3 4 2 3 3 4 7 9 7 8 7 6 7 8 12 8 7 6 6 10 12 15 16 15 15 15 17 17 17 17 16 16 15 16 19 19 19 18 19 22 21 20 20 19
3 3 3 5 5 7 9 7 8 9 8 8 8 11 9 8 6 5 9 10 11 12 14 12 13 16 14 16 16 15 16 15 15 15 16 19 22 22 22 20 20 20 20 18
0 3 4 6 4 6 6 7 7 8 9 9 17 13 10 9 6 8 7 10 11 13 10 11 12 12 13 14 15 14 13 15 13 13 15 11 11 14 12 14 16 18 16 13
3 1 3 2 6 5 6 6 10 9 8 9 11 10 13 12 7 13 11 14 14 14 12 12 14 14 15 13 13 13 14 12 11 14 16 15 13 11 12 13 12 16 14 11
Wind_Direction
265 170 266 246 29 348 339 344 33 108 38 62 8 317 15 92 92 95 95 102 104 86 76 81 97 103 106 102 96 86 84 67 58 36 18 351 341 357 353 352 333 329 304 283
300 127 51 354 326 343 30 34 359 347 2 21 346 51 60 61 75 81 81 85 91 97 87 76 77 89 92 84 78 71 68 62 51 44 32 11 0 0 337 324 347 329 284 256
65 95 44 301 333 58 49 28 2 339 327 333 322 64 65 65 74 61 55 72 74 86 75 59 60 57 70 73 66 59 50 43 39 32 23 15 9 352 7 345 347 347 322 291
21 107 63 10 47 42 8 356 339 325 353 300 44 270 54 70 67 65 63 58 62 70 68 63 59 58 60 63 62 58 47 40 26 28 20 11 10 350 334 336 339 329 317 310
296 47 2 38 27 11 328 25 356 321 306 287 276 92 191 100 76 76 75 60 65 70 87 79 77 83 78 68 54 43 63 46 22 18 4 339 321 307 311 319 320 321 332 334
343 65 30 44 1 32 16 3 336 331 300 16 7 93 37 5 104 82 70 59 63 63 61 64 70 71 71 55 58 55 47 35 350 323 316 297 308 331 328 331 334 336 327 302
42 34 22 31 351 12 3 2 343 10 353 250 353 64 82 56 71 91 93 76 70 73 75 72 68 66 63 77 58 30 9 358 358 350 338 333 335 328 336 343 337 328 322 318
33 46 304 176 92 251 293 81 128 278 277 280 321 58 87 87 86 83 104 135 136 125 132 178 275 312 323 9 32 14 7 17 19 23 16 1 355 345 335 329 328 322 320 318
3 261 4 26 342 322 325 20 269 191 302 29 128 90 115 115 121 130 161 160 132 143 134 138 33 6 351 352 352 7 39 17 4 360 351 349 347 347 342 335 332 330 332 321
324 344 30 360 340 351 2 336 19 2 334 312 83 83 357 122 121 129 139 126 98 99 87 22 16 340 344 343 44 38 22 14 360 353 349 353 2 345 352 346 340 339 342 337
26 65 324 2 351 11 1 22 30 69 1 242 335 82 50 83 93 107 77 96 133 116 88 26 288 318 38 41 37 21 12 7 355 349 354 357 357 342 343 337 354 353 349 351
330 126 4 301 315 53 30 233 337 144 255 255 137 89 358 37 103 119 169 182 157 93 53 337 4 62 44 28 16 6 360 4 360 1 355 4 355 1 360 348 351 347 0 11
322 6 12 341 347 359 345 327 357 9 32 55 347 96 71 59 115 104 199 101 52 62 84 11 48 40 32 18 4 25 8 357 359 3 1 1 11 358 347 335 353 5 21 32
47 14 64 266 293 319 323 327 66 76 76 343 346 97 85 212 136 208 153 128 153 75 67 50 30 7 12 20 34 6 0 354 349 350 347 356 8 3 14 14 22 15 5 3
93 357 339 319 312 308 323 50 51 75 204 67 145 126 216 206 207 205 144 153 83 55 42 24 25 58 35 16 7 7 351 344 347 346 3 21 20 23 27 30 34 33 33 53
34 296 315 310 309 334 66 35 102 58 67 117 136 160 235 305 59 64 58 59 61 43 24 41 37 33 16 10 7 352 354 346 358 6 24 28 31 34 40 42 43 42 45 51
83 6 346 296 334 320 48 11 87 84 60 101 61 190 211 86 68 57 57 49 47 41 57 28 24 16 14 4 356 358 4 12 19 26 35 37 28 30 36 27 26 26 31 29
94 4 339 315 17 57 21 8 98 83 57 48 23 49 66 102 85 69 64 52 67 50 27 11 358 10 10 10 13 19 27 26 30 36 38 35 25 24 22 26 25 23 27 21
131 75 356 86 284 129 55 11 14 104 53 18 14 49 44 105 97 62 55 75 68 57 22 1 4 17 13 18 24 33 24 27 24 31 44 31 31 37 30 26 25 30 30 28
87 109 108 3 353 62 359 343 342 92 42 320 54 52 40 43 63 71 64 60 44 32 42 29 24 26 32 40 33 29 25 37 48 44 42 45 37 30 29 31 36 37 35 33
16 28 65 63 165 99 338 7 31 64 285 52 73 61 66 78 106 150 80 65 52 46 46 48 47 46 33 36 42 42 40 34 43 48 48 40 36 40 39 45 33 22 40 59
86 73 350 9 31 227 345 39 75 171 48 59 58 63 88 95 87 79 64 64 46 63 48 40 48 43 37 37 42 37 35 32 51 48 43 45 46 40 36 37 43 47 54 56
50 148 171 121 165 133 69 94 80 85 78 65 72 59 97 93 86 65 70 68 45 62 52 42 46 39 37 34 38 40 34 37 40 49 55 54 56 53 53 55 56 58 60 52
128 199 107 95 62 54 90 80 84 91 89 60 67 100 84 95 86 56 96 71 78 69 58 49 43 37 33 38 39 48 51 53 60 60 47 63 68 62 59 58 50 47 49 51
60 115 123 93 119 123 93 112 122 97 106 92 86 88 92 92 70 66 96 75 74 68 68 48 43 37 47 45 52 56 51 57 60 50 36 31 30 40 40 41 46 49 46 46
51 1 106 149 148 125 142 122 94 84 76 111 113 94 97 100 99 86 90 82 68 58 44 54 52 57 44 53 51 34 44 67 54 47 48 54 59 53 48 46 45 46 51 63
Height
764 790 802 778 771 770 774 780 788 775 766 773 780 779 783 792 797 805 809 813 814 835 838 838 837 837 838 838 837 837 838 839 841 841 842 841 838 833 835 834 835 833 835 834
778 792 769 761 761 767 780 792 797 777 764 773 782 797 822 819 820 813 817 819 822 838 845 844 846 845 842 843 843 843 843 845 846 845 845 843 841 840 839 838 833 834 835 831
784 775 756 763 772 778 789 797 796 796 777 771 780 822 827 828 822 825 830 828 830 839 849 850 850 850 848 845 847 847 847 849 848 845 843 841 840 840 835 838 835 832 831 830
770 760 765 774 782 782 803 778 781 787 802 825 779 835 845 833 828 831 843 848 849 850 853 855 855 854 854 850 850 848 848 848 848 844 843 842 838 836 837 837 834 831 831 828
783 777 780 788 784 774 795 779 788 788 801 805 790 825 844 828 838 839 842 853 859 857 850 858 857 857 853 852 850 852 848 849 849 845 845 846 841 838 836 835 833 831 829 827
770 759 771 779 773 776 776 790 795 796 803 830 798 810 848 837 843 847 855 863 864 862 860 860 862 861 855 854 852 849 848 846 845 844 842 842 842 838 835 833 831 828 827 826
784 790 777 774 789 784 794 816 851 855 854 845 801 829 853 844 844 856 867 870 868 865 864 865 865 861 857 854 852 851 849 847 846 845 843 842 839 837 835 833 831 828 826 825
818 823 790 781 789 801 801 810 851 861 862 840 799 849 862 853 856 863 866 868 864 861 861 861 861 861 857 854 852 850 848 847 846 844 842 840 838 836 834 831 829 828 825 822
823 814 782 779 779 787 798 820 800 826 821 840 845 854 853 854 861 856 863 863 861 860 860 860 857 859 856 852 849 848 848 846 844 843 840 838 837 835 832 830 828 826 824 821
806 827 794 789 783 785 790 789 832 837 856 857 847 860 865 857 862 858 865 862 863 862 861 860 857 857 854 852 852 850 849 846 845 843 840 838 836 833 831 830 829 826 823 820
805 822 822 803 813 816 815 823 820 826 831 857 860 877 860 861 862 865 866 866 865 862 861 860 859 857 858 855 852 851 849 847 845 842 840 837 835 831 826 830 826 823 821 819
806 818 838 826 803 795 802 811 815 847 840 839 848 884 870 865 863 866 869 865 861 860 861 860 860 859 856 854 853 851 849 847 845 842 840 838 835 831 829 827 824 822 821 818
815 837 858 845 824 809 816 809 815 820 833 852 870 878 871 868 865 867 868 865 864 862 859 860 861 859 857 856 854 853 850 848 845 843 841 838 834 832 828 825 823 820 819 816
812 830 840 859 845 828 830 819 830 839 867 866 871 874 871 870 866 865 864 862 863 864 865 864 862 861 859 857 856 853 850 849 845 842 840 837 835 832 829 825 823 821 819 816
826 845 837 833 824 820 821 827 839 839 846 857 872 873 872 866 863 857 859 861 864 866 866 865 864 864 862 859 857 854 851 848 845 843 840 837 835 832 830 827 824 822 819 817
825 847 837 840 821 817 840 844 838 843 846 859 867 870 859 856 855 862 864 864 867 869 867 868 867 865 863 860 856 853 851 848 845 843 840 838 836 834 831 828 825 823 821 819
833 844 849 851 829 826 856 852 844 850 853 859 870 857 854 860 863 868 869 869 870 870 871 870 868 865 863 860 857 854 851 849 845 843 840 838 836 833 832 829 826 823 822 820
834 841 844 857 849 874 859 839 840 857 860 858 857 855 856 864 868 871 871 872 875 873 872 870 868 865 862 860 858 855 851 849 846 844 842 840 837 835 832 829 826 824 822 820
823 837 856 873 870 856 852 844 845 850 867 858 858 858 859 864 868 874 872 874 874 873 872 870 867 865 863 861 858 855 852 849 848 846 845 843 840 837 834 830 828 825 823 821
826 832 856 859 867 878 856 843 832 838 877 858 857 862 864 863 879 886 877 876 875 874 873 871 869 867 864 863 860 857 855 852 850 849 847 845 842 839 836 833 831 828 826 824
840 846 856 860 865 864 848 845 835 875 883 860 861 864 868 874 879 880 876 877 876 876 875 873 871 870 868 865 862 859 857 856 854 852 850 847 844 841 839 837 834 831 828 826
849 856 862 859 863 871 847 847 865 869 864 864 865 867 870 876 877 878 878 878 879 878 877 876 874 873 871 868 865 862 860 859 857 855 852 850 847 845 842 840 837 835 832 830
857 849 859 859 866 855 853 859 859 861 865 867 868 869 873 876 879 879 880 881 881 880 879 878 876 875 873 871 868 866 865 862 860 858 855 853 850 848 846 843 840 838 836 834
835 828 849 854 859 861 858 860 859 862 867 868 869 873 875 879 879 881 882 883 883 882 881 880 878 876 875 873 871 869 867 866 863 860 858 856 854 852 850 848 845 843 841 839
836 834 848 862 864 859 859 860 862 863 866 870 874 876 879 880 882 883 884 885 884 884 883 882 880 879 877 876 873 871 870 869 866 864 861 859 857 855 853 851 849 848 846 843
836 844 854 862 852 855 861 859 862 865 869 871 875 878 881 882 883 884 887 887 887 886 885 884 882 881 880 878 876 873 872 871 869 866 864 862 859 857 856 854 853 851 849 845